Weather History for Karlovy Vary, Czech Republic

Change the Weather History Date:

Thursday, October 4, 2012

  Actual Average (EDQM) Record (EDQM)
Temperature  
Mean Temperature 52 °F -  
Max Temperature 60 °F 54 °F 69 °F (2011)
Min Temperature 44 °F 43 °F 33 °F (2013)
Degree Days  
Heating Degree Days 13    
Growing Degree Days 2 (Base 50)    
Moisture  
Dew Point 47 °F    
Average Humidity 79    
Maximum Humidity 94    
Minimum Humidity 55    
Precipitation  
Precipitation 0.00 in - - ()
Sea Level Pressure  
Sea Level Pressure 29.87 in    
Wind  
Wind Speed 7 mph ()    
Max Wind Speed 22 mph    
Max Gust Speed 40 mph    
Visibility 6.0 miles    
Events Rain    
Averages and records for this station are not official NWS values.
T = Trace of Precipitation, MM = Missing Value Source: Averaged Metar Reports

Daily Weather History Graph

Daily Weather History Graph

Search for Another Location

Airport:

Trip Planner

Search our weather history database for the weather conditions in past years. The results will help you decide how hot, cold, wet, or windy it might be!

Date:

Astronomy

Oct. 04, 2012 Rise Set
Actual Time 7:13 AM CEST 6:39 PM CEST
Civil Twilight 6:41 AM CEST 7:11 PM CEST
Nautical Twilight 6:03 AM CEST 7:49 PM CEST
Astronomical Twilight 5:25 AM CEST 8:27 PM CEST
Moon 8:34 PM CEST (10/4) 11:42 AM CEST (10/4)
Length of Visible Light 12h 30m
Length of Day
11h 26m
Waning Gibbous, 84% of the Moon is Illuminated
Oct 4
Waning Gibbous
Oct 8
Last Quarter
Oct 15
New
Oct 22
First Quarter
Oct 29
Full

Hourly Weather History & Observations

Time (CEST) Temp. Windchill Dew Point Humidity Pressure Visibility Wind Dir Wind Speed Gust Speed Precip Events Conditions
12:00 AM 51.8 °F - 46.4 °F 82% 29.98 in - South 4.6 mph - N/A   Clear
1:00 AM 51.8 °F - 46.4 °F 82% 29.98 in - Variable 2.3 mph - N/A   Clear
2:00 AM 51.8 °F - 44.6 °F 76% 29.95 in - Variable 2.3 mph - N/A   Clear
3:00 AM 50.0 °F - 44.6 °F 82% 29.95 in - Variable 2.3 mph - N/A   Clear
4:00 AM 51.8 °F - 44.6 °F 76% 29.95 in - Variable 2.3 mph - N/A   Clear
5:00 AM 51.8 °F - 44.6 °F 76% 29.92 in - Variable 2.3 mph - N/A   Clear
6:00 AM 50.0 °F - 44.6 °F 82% 29.92 in 6.2 mi Variable 3.5 mph - N/A   Partly Cloudy
7:00 AM 51.8 °F - 44.6 °F 76% 29.92 in 6.2 mi Variable 3.5 mph - N/A   Partly Cloudy
8:00 AM 50.0 °F - 46.4 °F 87% 29.92 in - SE 3.5 mph - N/A   Clear
8:30 AM 51.8 °F - 46.4 °F 82% 29.89 in - Variable 3.5 mph - N/A   Clear
9:00 AM 53.6 °F - 46.4 °F 77% 29.89 in - SSW 4.6 mph - N/A   Clear
9:30 AM 55.4 °F - 48.2 °F 77% 29.89 in - South 6.9 mph - N/A   Clear
10:00 AM 55.4 °F - 48.2 °F 77% 29.89 in - SSW 8.1 mph - N/A   Clear
10:30 AM 55.4 °F - 48.2 °F 77% 29.89 in - South 9.2 mph 20.7 mph N/A   Clear
11:00 AM 59.0 °F - 48.2 °F 67% 29.86 in - SSW 11.5 mph - N/A   Clear
11:30 AM 59.0 °F - 48.2 °F 67% 29.86 in - SSW 9.2 mph - N/A   Clear
12:00 PM 60.8 °F - 48.2 °F 63% 29.86 in - South 12.7 mph - N/A   Clear
12:30 PM 60.8 °F - 48.2 °F 63% 29.83 in 6.2 mi South 11.5 mph - N/A   Partly Cloudy
1:00 PM 60.8 °F - 48.2 °F 63% 29.83 in 6.2 mi SSW 12.7 mph - N/A   Scattered Clouds
1:30 PM 60.8 °F - 44.6 °F 55% 29.80 in 6.2 mi SW 15.0 mph 28.8 mph N/A Rain Light Rain Showers
2:00 PM 60.8 °F - 46.4 °F 59% 29.80 in 6.2 mi SSW 13.8 mph - N/A Rain Light Rain Showers
2:30 PM 59.0 °F - 48.2 °F 67% 29.77 in 6.2 mi SSW 11.5 mph - N/A   Scattered Clouds
3:00 PM 60.8 °F - 48.2 °F 63% 29.74 in 6.2 mi SSW 8.1 mph - N/A Rain Light Rain Showers
3:30 PM 59.0 °F - 50.0 °F 72% 29.71 in 6.2 mi South 9.2 mph 20.7 mph N/A Rain Light Rain Showers
3:51 PM 55.4 °F - 51.8 °F 88% 29.77 in 5.6 mi SW 16.1 mph 34.5 mph N/A Rain Light Rain Showers
4:00 PM 55.4 °F - 51.8 °F 88% 29.77 in 5.0 mi WSW 15.0 mph 34.5 mph N/A Rain Light Rain Showers
4:30 PM 53.6 °F - 50.0 °F 88% 29.77 in 6.2 mi SW 12.7 mph 27.6 mph N/A Rain Light Rain Showers
5:00 PM 53.6 °F - 50.0 °F 88% 29.77 in 6.2 mi SW 12.7 mph - N/A Rain Light Rain Showers
5:18 PM 53.6 °F - 50.0 °F 88% 29.80 in 4.3 mi WSW 13.8 mph 26.5 mph N/A Rain Light Rain Showers
5:30 PM 51.8 °F - 50.0 °F 94% 29.80 in 6.2 mi WSW 21.9 mph 40.3 mph N/A Rain Rain Showers
6:00 PM 48.2 °F - 46.4 °F 93% 29.83 in 6.2 mi West 13.8 mph - N/A   Mostly Cloudy
6:30 PM 48.2 °F - 44.6 °F 87% 29.83 in 6.2 mi West 17.3 mph 28.8 mph N/A   Mostly Cloudy
7:00 PM 48.2 °F - 44.6 °F 87% 29.86 in 6.2 mi WSW 15.0 mph 27.6 mph N/A   Mostly Cloudy
7:30 PM 48.2 °F - 42.8 °F 82% 29.89 in 6.2 mi West 16.1 mph 29.9 mph N/A   Scattered Clouds
8:00 PM 46.4 °F 39.8 °F 42.8 °F 87% 29.92 in 6.2 mi West 16.1 mph - N/A   Scattered Clouds
8:30 PM 46.4 °F 40.4 °F 42.8 °F 87% 29.95 in 6.2 mi West 13.8 mph - N/A   Mostly Cloudy
9:00 PM 46.4 °F 40.4 °F 42.8 °F 87% 29.95 in 6.2 mi West 13.8 mph - N/A   Scattered Clouds
10:00 PM 44.6 °F 38.1 °F 41.0 °F 87% 29.98 in 6.2 mi West 13.8 mph - N/A   Partly Cloudy
11:00 PM 44.6 °F 40.2 °F 41.0 °F 87% 30.04 in 6.2 mi WSW 8.1 mph - N/A   Partly Cloudy